Location: Daytona Beach
(29.2106°N, 81.0231°W)
Time: 22:07:16
(UTC-04:00)

RS-15 - Pass Details

Date: 25 September 2021
Orbit: 1884 x 2160 km, 64.8° (Epoch: 22 October)

Event Time Altitude Azimuth Distance (km) Brightness Sun altitude
Rises 22:54:47 0° 339° (NNW) 5,606 11.0 -46.4°
Reaches altitude 10° 23:01:14 10° 3° (N) 4,646 10.2 -47.6°
Maximum altitude 23:06:56 14° 32° (NNE) 4,338 9.8 -48.6°
Enters shadow 23:08:08 14° 38° (NE) 4,356 9.8 -48.8°
